Погода в Симбухове

Россия / Нижегородская область     54°31′56″N   44°58′02″E
темп.,
°C
ветер,
м/с
пор.,
м/с
влажн.,
%
обл.,
%
осадки,
мм/ч
давл.,
гПа
погр.,
м
16 октября, сб
сб1600:00+4юз411775 0.0 1021316
03:00+2юз410800 0.0 1021226
06:00+2ююз412825 0.0 1022234
09:00+6юз6126465 0.0 1021499
12:00+10юз7104827 0.0 1020908
15:00+11ююз69465 0.0 10191077
18:00+7ююз411585 0.0 1018251
21:00+7ююз61457100 0.0 1018386
17 октября, вс
вс1700:00+7ююз61459100 0.0 1017433
03:00+6ююз5116698 0.0 1016260
06:00+6ююз4107255 0.0 1016258
09:00+8юз586560 0.0 1016375
12:00+11юз685611 0.0 1016981
15:00+12зюз575593 0.0 10141270
18:00+8юз337290 0.0 101540
21:00+6юз238231 0.0 101434
18 октября, пн
пн1800:00+5юз338789 0.0 101451
03:00+5юз3483100 0.0 101365
06:00+4юз3483100 0.0 101394
09:00+6юз4774100 0.0 1013313
12:00+10юз57575 0.0 10111050
15:00+10зюз6851100 0.0 10101687
18:00+6юз3863100 0.0 1011161
21:00+7зюз41060100 0.1 1010514
19 октября, вт
вт1900:00+6з3777100 0.0 1010262
03:00+5зсз3582100 0.0 1011379
06:00+3сз2393100 0.0 101183
09:00+4ссз2374100 0.0 1012331
12:00+6сз2353100 0.0 1011791
15:00+7зсз2353100 0.0 10111169
18:00+5ссз356789 0.4 1012616
21:00+3сз368099 0.4 1013342
20 октября, ср
ср2000:00+1сз368559 0.0 1014253
03:00+1зсз489279 0.1 1015355
06:00−1сз599799 0.0 1017439
09:00+1сз4779100 0.1 1019631
12:00+3сз676399 0.0 10201218
15:00+3зсз685298 0.1 10201466
18:000з487017 0.0 1022218
21:00−1з38838 0.0 1023197